Weather Service Report


978 
ASUS43 KMKX 181521
RWRWI 

WISCONSIN REGIONAL WEATHER ROUNDUP
NATIONAL WEATHER SERVICE MILWAUKEE/SULLIVAN WI
1000 AM CDT SAT APR 18 2015

NOTE: "FAIR" INDICATES FEW OR NO CLOUDS BELOW 12,000 FEET WITH NO
SIGNIFICANT WEATHER AND/OR OBSTRUCTIONS TO VISIBILITY.

WIZ001-002-006>008-014>016-023>028-181600-
NORTHWEST WISCONSIN
  
CITY           SKY/WX    TMP DP  RH WIND       PRES   REMARKS
SUPERIOR ARPT  SUNNY     42  35  74 NE15G23   30.23S                  
ASHLAND        SUNNY     47  35  63 NE13      30.24S                  
HAYWARD        SUNNY     51  30  44 NE10G17   30.17S                  
SIREN          SUNNY     52  32  45 NE9       30.14S                  
CUMBERLAND     SUNNY     52  32  46 E9        30.13S                  
RICE LAKE      SUNNY     54  32  43 NE10      30.15S                  
CHETEK         SUNNY     54  34  47 NE6       30.13S                  
LADYSMITH      SUNNY     55  32  41 E9        30.16S                  
EAU CLAIRE     MOSUNNY   58  30  34 E14       30.12S                  
MENOMONIE      MOSUNNY   57  30  36 E10       30.12S                  
NEW RICHMOND   SUNNY     57  29  33 E12G17    30.11F                  
OSCEOLA        SUNNY     56  33  41 E5        30.14S                  
$$
 
WIZ003>005-009-010-017-018-181600-
NORTH CENTRAL WISCONSIN
  
CITY           SKY/WX    TMP DP  RH WIND       PRES   REMARKS
MANITOWISH WTR SUNNY     46  31  57 E9        30.19F                  
ARBOR VITAE    SUNNY     48  31  52 E8        30.19R HAZE             
WOODRUFF       SUNNY     48  31  52 E8        30.19R HAZE             
RHINELANDER    SUNNY     49  30  48 E15       30.19R                  
EAGLE RIVER    SUNNY     46  29  51 E8        30.20S                  
LAND O LAKES   SUNNY     47  31  55 E8        30.22R                  
PHILLIPS       SUNNY     51  30  44 E8G17     30.16S                  
TOMAHAWK       SUNNY     50  31  48 NE7       30.18S                  
MEDFORD        SUNNY     52  32  46 NE12      30.14S                  
MERRILL        SUNNY     53  31  43 E13       30.16F                  
$$
 
WIZ029-030-035-036-043>047-181600-
CENTRAL WISCONSIN
  
CITY           SKY/WX    TMP DP  RH WIND       PRES   REMARKS
WAUSAU         SUNNY     54  31  41 E17       30.14F                  
MOSINEE        SUNNY     54  30  40 E14G20    30.16S                  
MARSHFIELD     SUNNY     56  30  37 E15G24    30.14R                  
STEVENS POINT  SUNNY     53  32  44 E13       30.16S                  
WAUPACA        SUNNY     55  33  42 NE13G18   30.18S                  
WAUTOMA        SUNNY     57  33  40 E14       30.17R                  
WISC RAPIDS    SUNNY     57  30  35 E15G25    30.16R                  
CAMP DOUGLAS   MOSUNNY   59  33  37 E13       30.12S                  
$$
 
WIZ011>013-019>022-031-037>040-048>050-181600-
NORTHEAST WISCONSIN
  
CITY           SKY/WX    TMP DP  RH WIND       PRES   REMARKS
ANTIGO         SUNNY     51  30  44 E14G20    30.18R                  
SHAWANO        SUNNY     53  36  53 E14G21    30.20R                  
OCONTO         SUNNY     50  34  53 E10G18    30.21R                  
STURGEON BAY   SUNNY     46  34  61 N8        30.23R                  
GREEN BAY      SUNNY     47  37  68 NE24G36   30.20R                  
MANITOWOC      SUNNY     47  36  65 NE16G25   30.20R                  
APPLETON       MOSUNNY   50  34  53 NE20G29   30.18R                  
CLINTONVILLE   SUNNY     52  32  46 E14G22    30.19S                  
OSHKOSH        SUNNY     52  37  56 NE15      30.17R                  
$$
 
WIZ032>034-041-042-053>061-181600-
SOUTHWEST WISCONSIN
  
CITY           SKY/WX    TMP DP  RH WIND       PRES   REMARKS
LA CROSSE      PTSUNNY   61  33  35 E10       30.09R                  
SPARTA         MOSUNNY   59  30  33 E15       30.11S                  
VIROQUA        PTSUNNY   60  33  36 E16       30.09R                  
BOSCOBEL       MOSUNNY   67  38  34 E9G18     30.08R                  
PRAIRIE DU CHI MOSUNNY   67  36  32 E9        30.05F                  
PLATTEVILLE    MOSUNNY   67  39  36 NE17G23   30.06R                  
$$

WIZ056-057-062-063-064-067-068-181600-
SOUTH CENTRAL WISCONSIN
  
CITY           SKY/WX    TMP DP  RH WIND       PRES   REMARKS
REEDSBURG      SUNNY     58  35  42 E12G18    30.12R                  
BARABOO/DELLS  SUNNY     56  34  43 E14       30.12R                  
LONE ROCK      MOSUNNY   61  38  42 E15       30.10R                  
MINERAL POINT  SUNNY     64  36  34 E16       30.08R                  
MADISON        PTSUNNY   60  35  39 E21       30.12R                  
MIDDLETON      SUNNY     61  35  37 E14G20    30.12R                  
WATERTOWN      SUNNY     58  36  44 NE13G18   30.12R                  
MONROE         MOSUNNY   63  43  48 NE13G21   30.08R                  
JANESVILLE     SUNNY     63  32  31 NE17G29   30.08R                  
$$
 
WIZ051-052-058>065-066-070>072-181600-
SOUTHEAST WISCONSIN
  
CITY           SKY/WX    TMP DP  RH WIND       PRES   REMARKS
MILWAUKEE      MOSUNNY   46  36  68 N23G35    30.14R                  
WAUKESHA       MOSUNNY   54  34  47 NE17G26   30.13R                  
MILWAUKEE/TIMM SUNNY     50  34  53 NE20G28   30.15R                  
RACINE         SUNNY     47  36  65 N18G29    30.14R                  
BURLINGTON     SUNNY     55  32  41 NE16G22   30.12R                  
KENOSHA        SUNNY     54  36  50 NE14G25   30.11R                  
FOND DU LAC    SUNNY     55  36  48 NE20      30.16R                  
SHEBOYGAN      SUNNY     49  37  63 NE26G37   30.17R                  
WEST BEND      SUNNY     52  34  50 NE20G29   30.15R                  
JUNEAU         SUNNY     56  36  47 NE13      30.14R                  
$$

LSZ147-162-181600-
LAKE SUPERIOR
  
STATION/POSITION TIME  TEMP    WIND        PRES    WAVE
                       AIR SEA DIR/SP/G            HT/PER
                 (UTC) (F)     (DEG/KT/KT) (MB)    (FT/S)
DEVILS ISLAND    1500   37      60/ 12/ 13 1026.0R
PORT WING        1400   46      60/ 13/ 18 1024.0
SAXON HARBOR     1400   40      30/  9/ 14 1023.4S
$$
 
LMZ867-665-643>646-181600-
LAKE MICHIGAN
  
STATION/POSITION TIME  TEMP    WIND        PRES    WAVE
                       AIR SEA DIR/SP/G            HT/PER
                 (UTC) (F)     (DEG/KT/KT) (MB)    (FT/S)
CHAMBERS ISLAND  1400   40      10/ 11/ 15 1023.4R
NORTHPORT PIER   1400   41     360/ 15/ 19 1023.0R
SISTER BAY       1447   46     360/ 17/ 21   N/A
KEWAUNEE LAKESHO 1500   43      40/ 18/ 22 1022.0R
SHEBOYGAN LAKESH 1500   40      10/ 23/ 26 1022.4R
PORT WASHINGTON  1422   48      30/ 16/ 26 1021.3S
MILWAUKEE LAKESH 1500   42      10/ 22/ 31   N/A
KENOSHA   LAKESH 1500   44      10/ 24/ 30 1019.3R
$$

TC  - TEMPERATURE IN CELSIUS
VSB - VISIBILITY IN STATUTE MILES
WCI - WIND CHILL INDEX
HX  - HEAT INDEX


Return to Home page


Western Regional Climate Center, wrcc@dri.edu